Starlink 6140

operational
NORAD ID: 57111 Int'l Des: 2023-090 Owner: SPXS Country: US Constellation: starlink
LEOCIRCULAR

About Starlink 6140

Description loading...

Live Position

Loading 3D Globe...

Upcoming Passes

Altitude History

Altitude vs Time

uPlot chart will show altitude changes over time

Two-Line Element Set

1 57111U 23090L 26071.54731538 .00001290 00000-0 11053-3 0 9996
2 57111 43.0028 259.0889 0001325 269.6281 90.4410 15.02535119150848
Epoch: Mar 12, 2026 • Age: 41 hours

Current Status

Altitude 561.0 km
Velocity 7.59 km/s
Sub-Earth Point 33.29°N, 35.26°W
Launch Date Jun 23, 2023
Age 2.7 years
Type internet

Technical Details

Classification Payload
Mass 305.00 kg
Dry Mass 290.00 kg
Total Mass 305.00 kg
Length 0.20 m
Diameter 2.80 m
Span 9.00 m
Shape Box + pan
Manufacturer SPXS
Bus Type Starlink
Phase Status In Orbit
Owner/State SPXS/US

Large Constellations

Loading constellations...